Tracking 29892 objects as of 21-Nov-2024
HD Live streaming from Space Station
objects crossing your sky now

FENGYUN 1C DEB

Track FENGYUN 1C DEB now!
10-day predictions


NORAD ID: 38147
Int'l Code: 1999-025EQU
Perigee: 789.6 km
Apogee: 863.0 km
Inclination: 98.6 °
Period: 101.3 minutes
Semi major axis: 7197 km
RCS: 0.0056 m2 (small)
Launch date: May 10, 1999
Source: People's Republic of China (PRC)
Launch site: Taiyaun Space Center, China (TSC)

Note: This is SATELLITE DEBRIS
Your satellite tracking list
Your tracking list is empty




NASA's NSSDC Master Catalog

Two Line Element Set (TLE):
1 38147U 99025EQU 24324.32171402  .00002016  00000-0  92234-3 0  9995
2 38147  98.5742 343.0225 0051043 349.8304  10.1837 14.21831789548644
Source of the keplerian elements: AFSPC